Cheraw, SC

8:38 PM EDT on July 26, 2017 (GMT -0400)
Cheraw

Weather History for KCQW - February, 2014

Change the Weather History Date:

Tuesday, February 25, 2014

  Actual Average (KFLO) Record (KFLO)
Temperature  
Mean Temperature 50 °F -  
Max Temperature 64 °F 60 °F 79 °F (2017)
Min Temperature 35 °F 38 °F 14 °F (1967)
Degree Days  
Heating Degree Days 16    
Moisture  
Dew Point 29 °F    
Average Humidity 47    
Maximum Humidity 81    
Minimum Humidity 30    
Precipitation  
Precipitation 0.00 in - - ()
Sea Level Pressure  
Sea Level Pressure 29.99 in    
Wind  
Wind Speed - (North)    
Max Wind Speed -    
Max Gust Speed -    
Visibility 10 miles    
Events      
Averages and records for this station are not official NWS values.
T = Trace of Precipitation, MM = Missing Value Source: NWS Daily Summary

Daily Weather History Graph

Daily Weather History Graph

Search for Another Location

Airport or City:

Trip Planner

Search our weather history database for the weather conditions in past years. The results will help you decide how hot, cold, wet, or windy it might be!

Date:

Astronomy

Feb. 25, 2014 Rise Set
Actual Time 6:54 AM EST 6:12 PM EST
Civil Twilight 6:28 AM EST 6:37 PM EST
Nautical Twilight 5:59 AM EST 7:06 PM EST
Astronomical Twilight 5:30 AM EST 7:36 PM EST
Moon 3:40 AM EST (2/25) 2:22 PM EST (2/25)
Length of Visible Light 12h 09m
Length of Day
11h 18m
Waning Crescent, 18% of the Moon is Illuminated
Feb 25
Waning Crescent
Mar 1
New
Mar 8
First Quarter
Mar 16
Full
Mar 23
Last Quarter

Hourly Weather History & Observations

Time (EST) Temp. Dew Point Humidity Pressure Visibility Wind Dir Wind Speed Gust Speed Precip Events Conditions
12:15 AM 44.6 °F 28.4 °F 53% 30.12 in 10.0 mi North - - N/A   Clear
12:35 AM 44.6 °F 26.6 °F 49% 30.12 in 10.0 mi North - - N/A   Clear
12:55 AM 42.8 °F 26.6 °F 53% 30.11 in 10.0 mi North - - N/A   Clear
1:15 AM 42.8 °F 24.8 °F 49% 30.10 in 10.0 mi North - - N/A   Clear
1:35 AM 42.8 °F 24.8 °F 49% 30.10 in 10.0 mi North - - N/A   Clear
1:55 AM 41.0 °F 23.0 °F 49% 30.09 in 10.0 mi North - - N/A   Clear
2:15 AM 41.0 °F 23.0 °F 49% 30.08 in 10.0 mi North - - N/A   Clear
2:35 AM 41.0 °F 23.0 °F 49% 30.07 in 10.0 mi North - - N/A   Clear
2:55 AM 39.2 °F 23.0 °F 52% 30.07 in 10.0 mi North - - N/A   Clear
3:15 AM 39.2 °F 24.8 °F 56% 30.06 in 10.0 mi North - - N/A   Clear
3:35 AM 39.2 °F 24.8 °F 56% 30.06 in 10.0 mi North - - N/A   Clear
3:55 AM 39.2 °F 24.8 °F 56% 30.06 in 10.0 mi North - - N/A   Clear
4:15 AM 39.2 °F 21.2 °F 49% 30.05 in 10.0 mi North - - N/A   Clear
4:35 AM 39.2 °F 21.2 °F 49% 30.05 in 10.0 mi North - - N/A   Clear
4:55 AM 37.4 °F 24.8 °F 60% 30.05 in 10.0 mi North - - N/A   Clear
5:15 AM 37.4 °F 24.8 °F 60% 30.04 in 10.0 mi North - - N/A   Clear
5:35 AM 37.4 °F 24.8 °F 60% 30.05 in 10.0 mi North - - N/A   Clear
5:55 AM 37.4 °F 24.8 °F 60% 30.05 in 10.0 mi North - - N/A   Clear
6:15 AM 35.6 °F 26.6 °F 70% 30.05 in 10.0 mi North - - N/A   Clear
6:35 AM 35.6 °F 24.8 °F 65% 30.05 in 10.0 mi North - - N/A   Clear
6:55 AM 35.6 °F 24.8 °F 65% 30.05 in 10.0 mi North - - N/A   Clear
7:15 AM 35.6 °F 28.4 °F 75% 30.04 in 10.0 mi North - - N/A   Scattered Clouds
7:35 AM 37.4 °F 32.0 °F 81% 30.05 in 10.0 mi North - - N/A   Mostly Cloudy
7:55 AM 39.2 °F 32.0 °F 75% 30.05 in 10.0 mi North - - N/A   Overcast
8:15 AM 39.2 °F 30.2 °F 70% 30.05 in 10.0 mi North - - N/A   Mostly Cloudy
8:35 AM 41.0 °F 30.2 °F 65% 30.04 in 10.0 mi North - - N/A   Mostly Cloudy
8:55 AM 44.6 °F 24.8 °F 46% 30.04 in 10.0 mi North - - N/A   Partly Cloudy
9:15 AM 48.2 °F 24.8 °F 40% 30.03 in 10.0 mi North - - N/A   Partly Cloudy
9:35 AM 48.2 °F 24.8 °F 40% 30.04 in 10.0 mi North - - N/A   Partly Cloudy
9:55 AM 50.0 °F 26.6 °F 40% 30.03 in 10.0 mi North - - N/A   Partly Cloudy
10:15 AM 50.0 °F 28.4 °F 43% 30.02 in 10.0 mi North - - N/A   Clear
10:35 AM 55.4 °F 32.0 °F 41% 30.00 in 10.0 mi North - - N/A   Clear
10:55 AM 57.2 °F 35.6 °F 44% 30.00 in 10.0 mi North - - N/A   Scattered Clouds
11:15 AM 59.0 °F 37.4 °F 45% 29.99 in 10.0 mi North - - N/A   Scattered Clouds
11:35 AM 60.8 °F 39.2 °F 45% 29.98 in 10.0 mi North - - N/A   Clear
11:55 AM 62.6 °F 37.4 °F 39% 29.97 in 10.0 mi North - - N/A   Partly Cloudy
12:15 PM 64.4 °F 37.4 °F 37% 29.97 in 10.0 mi North - - N/A   Partly Cloudy
12:35 PM 64.4 °F 32.0 °F 30% 29.96 in 10.0 mi North - - N/A   Clear
12:55 PM 64.4 °F 33.8 °F 32% 29.95 in 10.0 mi North - - N/A   Clear
1:15 PM 62.6 °F 33.8 °F 34% 29.93 in 10.0 mi North - - N/A   Clear
1:35 PM 64.4 °F 33.8 °F 32% 29.93 in 10.0 mi North - - N/A   Clear
1:55 PM 64.4 °F 32.0 °F 30% 29.92 in 10.0 mi North - - N/A   Partly Cloudy
2:15 PM 64.4 °F 32.0 °F 30% 29.91 in 10.0 mi North - - N/A   Partly Cloudy
2:35 PM 64.4 °F 32.0 °F 30% 29.91 in 10.0 mi North - - N/A   Clear
2:55 PM 64.4 °F 32.0 °F 30% 29.91 in 10.0 mi North - - N/A   Clear
3:15 PM 64.4 °F 32.0 °F 30% 29.91 in 10.0 mi North - - N/A   Clear
3:35 PM 64.4 °F 32.0 °F 30% 29.90 in 10.0 mi North - - N/A   Clear
3:55 PM 64.4 °F 32.0 °F 30% 29.89 in 10.0 mi North - - N/A   Clear
4:15 PM 64.4 °F 32.0 °F 30% 29.90 in 10.0 mi North - - N/A   Clear
4:35 PM 64.4 °F 32.0 °F 30% 29.90 in 10.0 mi North - - N/A   Clear
4:55 PM 62.6 °F 32.0 °F 32% 29.90 in 10.0 mi North - - N/A   Clear
5:15 PM 62.6 °F 32.0 °F 32% 29.90 in 10.0 mi North - - N/A   Clear
5:35 PM 60.8 °F 32.0 °F 34% 29.91 in 10.0 mi North - - N/A   Clear
5:55 PM 57.2 °F 32.0 °F 38% 29.92 in 10.0 mi North - - N/A   Clear
6:15 PM 55.4 °F 32.0 °F 41% 29.92 in 10.0 mi North - - N/A   Clear
6:35 PM 55.4 °F 32.0 °F 41% 29.92 in 10.0 mi North - - N/A   Clear
6:55 PM 51.8 °F 32.0 °F 47% 29.92 in 10.0 mi North - - N/A   Clear
7:15 PM 51.8 °F 32.0 °F 47% 29.92 in 10.0 mi North - - N/A   Clear
7:35 PM 50.0 °F 32.0 °F 50% 29.92 in 10.0 mi North - - N/A   Clear
7:55 PM 50.0 °F 32.0 °F 50% 29.93 in 10.0 mi North - - N/A   Clear
8:15 PM 48.2 °F 33.8 °F 58% 29.94 in 10.0 mi North - - N/A   Clear
8:35 PM 48.2 °F 30.2 °F 50% 29.95 in 10.0 mi North - - N/A   Clear
8:55 PM 48.2 °F 28.4 °F 46% 29.95 in 10.0 mi North - - N/A   Clear
9:15 PM 46.4 °F 26.6 °F 46% 29.96 in 10.0 mi North - - N/A   Clear
9:35 PM 46.4 °F 24.8 °F 43% 29.96 in 10.0 mi North - - N/A   Clear
9:55 PM 46.4 °F 24.8 °F 43% 29.97 in 10.0 mi North - - N/A   Partly Cloudy
10:15 PM 46.4 °F 24.8 °F 43% 29.98 in 10.0 mi North - - N/A   Mostly Cloudy
10:35 PM 46.4 °F 24.8 °F 43% 29.97 in 10.0 mi North - - N/A   Mostly Cloudy
10:55 PM 44.6 °F 24.8 °F 46% 29.97 in 10.0 mi North - - N/A   Scattered Clouds
11:15 PM 44.6 °F 24.8 °F 46% 29.96 in 10.0 mi North - - N/A   Mostly Cloudy
11:35 PM 42.8 °F 24.8 °F 49% 29.96 in 10.0 mi North - - N/A   Mostly Cloudy
11:55 PM 42.8 °F 23.0 °F 46% 29.95 in 10.0 mi North - - N/A   Scattered Clouds